[[{"header":{"parameterUnit":"m.s-1","parameterCategory":1,"la1":30.2991,"la2":30.254,"lo1":-89.0895,"lo2":-89.0444,"dy":0.0017,"dx":0.0017,"nx":28,"ny":28,"refTime":"2025-07-18T21:00:00:Z","depth":0,"parameterNumber":2,"parameterNumberName":"U-component_of_WINDS"},"data":[0,0,0,0,0,0,0,0,0,0,0,0,0,0,0,0,0,0,0,0,0,0,0,0,0,0,0,0,0,0,0,0,0,0,0,0,0,0,0,0,0,0,0,0,0,0,0,0,0,0,0,0,0,0,0,0,0,0,0.7189,0.7189,0,0.7184,0.7184,0.7184,0.7137,0.7136,0.7134,0.7133,0.7129,0.713,0.7131,0,0,0,0,0,0,0,0,0,0,0,0,0,0.7157,0.7158,0.7189,0.7189,0.7189,0.7184,0.7184,0.7184,0.7137,0.7136,0.7134,0.7133,0.7128,0.713,0.7131,0,0,0,0,0,0,0,0,0,0,0,0,0,0.7164,0.7159,0.7189,0.7165,0.7163,0.7184,0.7184,0.7184,0.7137,0.7136,0.7134,0.7132,0.7128,0.7129,0.7131,0.7175,0,0,0.7135,0.7136,0,0,0,0,0,0,0,0,0.7163,0.7165,0.7169,0.7167,0.7164,0.7159,0.7171,0.7181,0.7138,0.7147,0.7133,0.7131,0.714,0.7141,0.7144,0.7175,0.7175,0.7135,0.7136,0.7137,0.7137,0,0,0,0,0,0,0,0.7163,0.7165,0.7187,0.7169,0.7166,0.7154,0.7153,0.7173,0.7154,0.7146,0.7143,0.7143,0.7139,0.7142,0.7143,0.7175,0.7135,0.7137,0.7138,0.7138,0.7239,0.7241,0,0,0,0,0,0,0.7166,0.7165,0.7188,0.7187,0.716,0.7156,0.7155,0.7163,0.7153,0.715,0.7144,0.714,0.7141,0.7142,0.7143,0.7192,0.7137,0.7138,0.7139,0.7238,0.724,0.7242,0,0,0,0,0,0,0.7166,0.7169,0.7188,0.7175,0.7177,0.7159,0.7168,0.7164,0.7167,0.7152,0.7148,0.7151,0.7139,0.7141,0.7167,0.7192,0.7139,0.714,0.7235,0.7238,0.7241,0.7293,0,0,0,0,0,0,0.7165,0.7169,0.7186,0.7176,0.7177,0.7213,0.7169,0.7165,0.717,0.7165,0.7158,0.7155,0.7138,0.7165,0.7168,0.7193,0.7141,0.7233,0.7237,0.724,0.7289,0.7297,0.7304,0,0,0,0,0,0.7164,0.7202,0.7187,0.719,0.7199,0.7214,0.7215,0.7195,0.7172,0.7188,0.7178,0.7155,0.7188,0.7168,0.7171,0.7197,0.7232,0.7236,0.724,0.7286,0.7296,0.7304,0,0,0,0,0,0,0.7216,0.72,0.7184,0.7219,0.7218,0.7206,0.7227,0.7206,0.7212,0.7208,0.7182,0.7181,0.7211,0.7206,0.7184,0.7238,0.7206,0.7211,0.724,0.7249,0.7256,0.7257,0.7143,0,0,0,0,0,0.7232,0.7246,0.7231,0.7264,0.7264,0.7245,0.7251,0.7236,0.7234,0.7233,0.7225,0.7224,0.7234,0.7241,0.725,0.7288,0.7285,0.7307,0.7314,0.7321,0.7325,0.7343,0.7352,0.7255,0.7255,0.7255,0,0,0.7264,0.7257,0.7268,0.7274,0.7271,0.7285,0.7245,0.7263,0.7273,0.7236,0.726,0.7253,0.725,0.7282,0.7296,0.728,0.7351,0.7326,0.7331,0.7332,0.7348,0.7357,0.7366,0.7258,0.7257,0.7257,0,0,0.7331,0.7327,0.7353,0.7351,0.7347,0.7334,0.734,0.733,0.7324,0.7347,0.7319,0.733,0.7349,0.7347,0.7349,0.7411,0.739,0.7415,0.7455,0.7472,0.748,0.7487,0.7508,0.7516,0.742,0.742,0.742,0,0.7372,0.7393,0.7369,0.7388,0.739,0.7356,0.7381,0.738,0.738,0.7382,0.7364,0.7384,0.738,0.741,0.7425,0.7428,0.7433,0.7416,0.7481,0.7487,0.7493,0.7513,0.7521,0.7423,0.7422,0.7422,0.7422,0,0.7442,0.7457,0.7478,0.7477,0.7482,0.7504,0.7483,0.7491,0.7474,0.7463,0.7486,0.7479,0.7485,0.749,0.7475,0.7518,0.7507,0.7485,0.7453,0.7506,0.7524,0.7531,0.7427,0.7426,0.7425,0.7424,0,0,0.7543,0.7527,0.7535,0.7533,0.7525,0.7535,0.7555,0.7559,0.7566,0.7566,0.7581,0.7596,0.7574,0.7576,0.756,0.7575,0.7623,0.7551,0.755,0.7564,0.7668,0.7684,0.7693,0.7608,0.761,0.7611,0.7668,0,0.7606,0.7638,0.7617,0.7652,0.7664,0.7631,0.7647,0.7644,0.7633,0.7641,0.763,0.764,0.7612,0.7612,0.7626,0.7615,0.7644,0.761,0.7621,0.7622,0.7623,0.7703,0.7721,0.7775,0.7675,0.7676,0.7677,0,0.7684,0.7686,0.7723,0.7709,0.7714,0.7729,0.773,0.7739,0.7733,0.7724,0.7725,0.7704,0.7721,0.7689,0.7711,0.7689,0.7692,0.7687,0.7688,0.7688,0.7653,0.7704,0.7791,0.7799,0.7688,0.7687,0.7686,0,0.7752,0.7764,0.7787,0.7786,0.7772,0.7783,0.7778,0.777,0.7774,0.7775,0.7776,0.7779,0.7781,0.7784,0.7763,0.7742,0.7788,0.7754,0.778,0.7781,0.7792,0.7791,0.788,0.7795,0.7795,0.7795,0.7794,0,0.7825,0.7848,0.7817,0.7831,0.7855,0.783,0.7855,0.7846,0.7839,0.785,0.7821,0.7832,0.7805,0.7813,0.7797,0.7817,0.7818,0.7811,0.7806,0.7813,0.7814,0.7815,0.781,0.7797,0.7796,0.7796,0.7795,0,0.7905,0.7886,0.7908,0.7891,0.7888,0.7907,0.7892,0.7904,0.7891,0.7905,0.7907,0.7886,0.7893,0.7873,0.7878,0.7867,0.7895,0.7885,0.7897,0.7894,0.792,0.7918,0.8012,0.8023,0.7932,0.7933,0.7934,0,0.7952,0.7969,0.7954,0.7959,0.7955,0.7963,0.7966,0.794,0.7944,0.7938,0.795,0.7955,0.7957,0.797,0.7955,0.7958,0.7947,0.798,0.7948,0.7953,0.7946,0.7945,0.7946,0.7987,0.7988,0.7989,0.799,0,0.8038,0.8026,0.8031,0.8032,0.8035,0.8035,0.8032,0.8038,0.801,0.8016,0.8022,0.8024,0.8028,0.8033,0.8032,0.8025,0.8003,0.8,0.8006,0.8013,0.8018,0.8014,0.7915,0.7998,0.7997,0.7996,0.7996,0.7996,0.8102,0.8114,0.8105,0.811,0.8105,0.8103,0.8113,0.81,0.8105,0.8105,0.809,0.8099,0.8091,0.8087,0.8083,0.8089,0.8074,0.8083,0.8085,0.8088,0.8092,0.8018,0.8089,0.8089,0.8089,0.8089,0.8088,0,0.8184,0.8176,0.8181,0.8178,0.8182,0.8159,0.8154,0.8159,0.8168,0.8162,0.8164,0.817,0.8174,0.8159,0.816,0.8168,0.8158,0.8169,0.8168,0.8167,0.8106,0.81,0.8178,0.8178,0.8178,0.8178,0.8178,0.8178,0.8228,0.8247,0.8234,0.825,0.8242,0.825,0.8249,0.8246,0.8241,0.8249,0.8252,0.8241,0.8231,0.8231,0.8233,0.8228,0.823,0.8245,0.8237,0.818,0.8171,0.8163,0.8157,0.8246,0.8246,0.8297,0.8297,0.8297]},{"header":{"parameterUnit":"m.s-1","parameterCategory":1,"la1":30.2991,"la2":30.254,"lo1":-89.0895,"lo2":-89.0444,"dy":0.0017,"dx":0.0017,"nx":28,"ny":28,"refTime":"2025-07-18T21:00:00:Z","depth":0,"parameterNumber":3,"parameterNumberName":"V-component_of_WINDS"},"data":[0,0,0,0,0,0,0,0,0,0,0,0,0,0,0,0,0,0,0,0,0,0,0,0,0,0,0,0,0,0,0,0,0,0,0,0,0,0,0,0,0,0,0,0,0,0,0,0,0,0,0,0,0,0,0,0,0,0,6.3745,6.3745,0,6.3736,6.3736,6.3736,6.3666,6.3664,6.3662,6.3661,6.3651,6.3653,6.3654,0,0,0,0,0,0,0,0,0,0,0,0,0,6.3703,6.3705,6.3745,6.3745,6.3745,6.3736,6.3736,6.3736,6.3666,6.3664,6.3662,6.366,6.3651,6.3652,6.3654,0,0,0,0,0,0,0,0,0,0,0,0,0,6.3711,6.3705,6.3746,6.3709,6.3706,6.3736,6.3736,6.3735,6.3666,6.3664,6.3661,6.3659,6.365,6.3652,6.3654,6.3718,0,0,6.366,6.3661,0,0,0,0,0,0,0,0,6.371,6.3712,6.3715,6.3712,6.3708,6.3699,6.3717,6.373,6.3667,6.3681,6.3661,6.3658,6.3669,6.367,6.3673,6.3718,6.3717,6.3661,6.3662,6.3663,6.3663,0,0,0,0,0,0,0,6.371,6.3712,6.3742,6.3715,6.3711,6.3693,6.3692,6.3719,6.369,6.368,6.3675,6.3675,6.3667,6.3672,6.3673,6.3717,6.3661,6.3662,6.3664,6.3664,6.3811,6.3814,0,0,0,0,0,0,6.3714,6.3712,6.3742,6.3741,6.3703,6.3696,6.3694,6.3705,6.3689,6.3685,6.3677,6.3671,6.3669,6.367,6.3672,6.3744,6.3663,6.3665,6.3666,6.3809,6.3812,6.3815,0,0,0,0,0,0,6.3714,6.3718,6.3742,6.3725,6.3727,6.37,6.3712,6.3706,6.371,6.3687,6.3681,6.3687,6.3668,6.3669,6.3707,6.3743,6.3665,6.3667,6.3805,6.381,6.3813,6.389,0,0,0,0,0,0,6.3713,6.3718,6.3742,6.3726,6.3728,6.3777,6.3714,6.3708,6.3714,6.3707,6.3695,6.3691,6.3666,6.3704,6.3709,6.3744,6.3669,6.3802,6.3807,6.3812,6.3884,6.3896,6.3906,0,0,0,0,0,6.3712,6.3765,6.3744,6.3748,6.3758,6.378,6.3781,6.375,6.3717,6.3741,6.3726,6.3691,6.3739,6.3708,6.3713,6.375,6.38,6.3806,6.3812,6.3879,6.3893,6.3906,0,0,0,0,0,0,6.3786,6.3762,6.3738,6.3788,6.3786,6.3768,6.3797,6.3767,6.3775,6.3768,6.3731,6.3729,6.3771,6.3765,6.3732,6.381,6.3763,6.377,6.3812,6.3826,6.3837,6.3837,6.3671,0,0,0,0,0,6.3808,6.3827,6.3805,6.3851,6.3852,6.3825,6.3833,6.381,6.3807,6.3806,6.3793,6.3792,6.3806,6.3816,6.3828,6.3883,6.3878,6.391,6.3922,6.3931,6.3937,6.3964,6.3977,6.3835,6.3835,6.3834,0,0,6.3854,6.3843,6.3858,6.3866,6.3862,6.3882,6.3824,6.3849,6.3863,6.3809,6.3843,6.3834,6.383,6.3876,6.3895,6.3871,6.3976,6.3939,6.3946,6.3947,6.3971,6.3985,6.3997,6.3839,6.3838,6.3837,0,0,6.3947,6.3942,6.3978,6.3975,6.3969,6.3951,6.396,6.3945,6.3937,6.397,6.393,6.3947,6.3973,6.397,6.3973,6.4065,6.4032,6.407,6.4127,6.4154,6.4165,6.4175,6.4205,6.4217,6.4076,6.4077,6.4077,0,6.4004,6.4033,6.4,6.4027,6.4031,6.3983,6.4019,6.4018,6.4017,6.402,6.3994,6.4024,6.4018,6.4061,6.4084,6.4088,6.4096,6.407,6.4166,6.4176,6.4184,6.4213,6.4225,6.4081,6.4081,6.408,6.408,0,6.4103,6.4124,6.4154,6.4153,6.4161,6.4192,6.4164,6.4176,6.4152,6.4136,6.417,6.4161,6.417,6.4179,6.4157,6.4219,6.4204,6.4173,6.4124,6.4203,6.4229,6.424,6.4087,6.4086,6.4085,6.4083,0,0,6.4242,6.4222,6.4233,6.4231,6.4221,6.4236,6.4265,6.4273,6.4283,6.4284,6.4306,6.4329,6.4299,6.4302,6.4279,6.4303,6.4374,6.4268,6.4267,6.4286,6.444,6.4462,6.4475,6.4353,6.4355,6.4357,6.4439,0,6.4329,6.4377,6.4348,6.4399,6.4417,6.4371,6.4396,6.4393,6.4379,6.4392,6.4377,6.4393,6.4353,6.4354,6.4376,6.436,6.4404,6.4354,6.4372,6.4373,6.4372,6.4489,6.4513,6.4592,6.445,6.4451,6.4453,0,6.4438,6.4442,6.4495,6.448,6.4486,6.4509,6.4513,6.4526,6.4521,6.4509,6.4512,6.4483,6.451,6.4464,6.45,6.4467,6.4473,6.4466,6.4469,6.4467,6.4416,6.4489,6.4616,6.4627,6.4469,6.4468,6.4467,0,6.453,6.455,6.4583,6.4584,6.4567,6.4584,6.4578,6.4571,6.4577,6.458,6.4583,6.4591,6.4595,6.4601,6.4574,6.4544,6.4613,6.4565,6.4603,6.4604,6.4618,6.4617,6.4745,6.4626,6.4626,6.4625,6.4625,0,6.463,6.4663,6.4624,6.4645,6.4681,6.4648,6.4684,6.4674,6.4667,6.4684,6.4647,6.4664,6.4629,6.4642,6.4622,6.4654,6.4656,6.4647,6.464,6.4649,6.465,6.465,6.4643,6.4628,6.4628,6.4627,6.4627,0,6.4739,6.4714,6.4747,6.4729,6.4725,6.4752,6.4736,6.4754,6.4738,6.4761,6.4764,6.4739,6.4752,6.4727,6.4738,6.4724,6.4768,6.4755,6.4769,6.4764,6.4802,6.4798,6.4934,6.4949,6.4822,6.4824,6.4825,0,6.4802,6.4827,6.4811,6.4819,6.4815,6.483,6.4835,6.4804,6.4811,6.4806,6.4825,6.4835,6.4842,6.4866,6.4848,6.4856,6.4841,6.4888,6.4842,6.4849,6.4839,6.4837,6.4838,6.4897,6.4899,6.49,6.4901,0,6.4917,6.4904,6.4913,6.4918,6.4925,6.4927,6.4927,6.4937,6.4903,6.4913,6.4926,6.4931,6.4942,6.4952,6.4956,6.495,6.492,6.4916,6.4925,6.4932,6.4939,6.4933,6.4792,6.4913,6.4911,6.4911,6.491,6.4909,6.5004,6.5023,6.5014,6.5025,6.5021,6.5021,6.5037,6.5022,6.5032,6.5038,6.5019,6.5036,6.5029,6.5031,6.5028,6.5041,6.502,6.5033,6.5036,6.5039,6.5044,6.4939,6.5042,6.5042,6.5041,6.5041,6.5041,0,6.5115,6.5107,6.5117,6.5117,6.5126,6.5097,6.5095,6.5104,6.5119,6.5115,6.5122,6.5137,6.5146,6.513,6.5137,6.515,6.5136,6.5153,6.515,6.5149,6.5064,6.5054,6.5164,6.5164,6.5164,6.5164,6.5164,6.5164,6.5173,6.5203,6.5188,6.5215,6.5207,6.5222,6.5224,6.5223,6.522,6.5238,6.5245,6.5234,6.5225,6.5231,6.5238,6.5233,6.5237,6.5258,6.5248,6.5168,6.5155,6.5144,6.5135,6.5259,6.5259,6.5331,6.5332,6.5333]}]]